Time,TemperatureF,DewpointF,PressureIn,WindDirection,WindDirectionDegrees,WindSpeedMPH,WindSpeedGustMPH,Humidity,HourlyPrecipIn,Conditions,Clouds,dailyrainin,SoftwareType,DateUTC
2013-08-22 00:14:00,82.6,65.3,30.02,South,180,6.7,-999.0,56,-99.99,,,0.00,Acu-Link.com,2013-08-22 05:14:00,
2013-08-22 00:29:00,82.2,65.4,30.03,South,180,6.3,-999.0,57,-99.99,,,0.00,Acu-Link.com,2013-08-22 05:29:00,
2013-08-22 00:44:00,81.5,65.8,30.02,South,180,5.8,-999.0,59,-99.99,,,0.00,Acu-Link.com,2013-08-22 05:44:00,
2013-08-22 00:59:00,80.8,66.1,30.02,South,180,4.7,-999.0,61,-99.99,,,0.00,Acu-Link.com,2013-08-22 05:59:00,
2013-08-22 01:15:00,80.6,65.9,30.03,SSE,157,4.7,-999.0,61,-99.99,,,0.00,Acu-Link.com,2013-08-22 06:15:00,
2013-08-22 01:30:00,79.9,66.1,30.01,SE,135,4.3,-999.0,63,-99.99,,,0.00,Acu-Link.com,2013-08-22 06:30:00,
2013-08-22 01:45:00,78.4,66.6,30.01,South,180,0.0,-999.0,67,-99.99,,,0.00,Acu-Link.com,2013-08-22 06:45:00,
2013-08-22 02:00:00,78.3,66.8,30.02,SSE,157,0.0,-999.0,68,-99.99,,,0.00,Acu-Link.com,2013-08-22 07:00:00,
2013-08-22 02:15:00,78.3,67.2,30.01,SSE,157,0.0,-999.0,69,-99.99,,,0.00,Acu-Link.com,2013-08-22 07:15:00,
2013-08-22 02:31:00,77.2,67.8,30.01,SE,135,0.0,-999.0,73,-99.99,,,0.00,Acu-Link.com,2013-08-22 07:31:00,
2013-08-22 02:46:00,76.5,67.9,30.00,SE,135,0.0,-999.0,75,-99.99,,,0.00,Acu-Link.com,2013-08-22 07:46:00,
2013-08-22 03:01:00,75.7,68.0,30.01,SE,135,0.0,-999.0,77,-99.99,,,0.00,Acu-Link.com,2013-08-22 08:01:00,
2013-08-22 03:16:00,75.2,68.2,30.01,ESE,112,0.0,-999.0,79,-99.99,,,0.00,Acu-Link.com,2013-08-22 08:16:00,
2013-08-22 03:31:00,74.5,68.6,30.01,East,90,0.0,-999.0,82,-99.99,,,0.00,Acu-Link.com,2013-08-22 08:31:00,
2013-08-22 03:46:00,73.4,68.9,30.01,ESE,112,0.0,-999.0,86,-99.99,,,0.00,Acu-Link.com,2013-08-22 08:46:00,
2013-08-22 04:01:00,72.9,69.4,30.01,SSE,157,0.0,-999.0,89,-99.99,,,0.00,Acu-Link.com,2013-08-22 09:01:00,
2013-08-22 04:17:00,72.7,70.2,30.01,ESE,112,1.1,-999.0,92,-99.99,,,0.00,Acu-Link.com,2013-08-22 09:17:00,
2013-08-22 04:32:00,72.5,71.3,30.01,SSE,157,0.0,-999.0,96,-99.99,,,0.00,Acu-Link.com,2013-08-22 09:32:00,
2013-08-22 04:47:00,72.5,71.9,30.01,ESE,112,0.0,-999.0,98,-99.99,,,0.00,Acu-Link.com,2013-08-22 09:47:00,
2013-08-22 05:02:00,72.3,71.7,30.00,ESE,112,0.0,-999.0,98,-99.99,,,0.00,Acu-Link.com,2013-08-22 10:02:00,
2013-08-22 05:17:00,72.1,71.5,30.00,ESE,112,0.0,-999.0,98,-99.99,,,0.00,Acu-Link.com,2013-08-22 10:17:00,
2013-08-22 05:33:00,72.0,71.4,30.00,SE,135,0.0,-999.0,98,-99.99,,,0.00,Acu-Link.com,2013-08-22 10:33:00,
2013-08-22 05:48:00,72.0,71.4,30.00,SE,135,0.0,-999.0,98,-99.99,,,0.00,Acu-Link.com,2013-08-22 10:48:00,
2013-08-22 07:34:00,71.4,70.8,30.03,SE,135,0.0,-999.0,98,-99.99,,,0.00,Acu-Link.com,2013-08-22 12:34:00,
2013-08-22 07:50:00,73.2,72.6,30.03,East,90,0.0,-999.0,98,-99.99,,,0.00,Acu-Link.com,2013-08-22 12:50:00,
2013-08-22 08:05:00,75.2,74.6,30.04,ESE,112,0.0,-999.0,98,-99.99,,,0.00,Acu-Link.com,2013-08-22 13:05:00,
2013-08-22 08:20:00,76.3,75.7,30.05,South,180,0.0,-999.0,98,-99.99,,,0.00,Acu-Link.com,2013-08-22 13:20:00,
2013-08-22 08:35:00,78.1,76.8,30.05,SSE,157,0.0,-999.0,96,-99.99,,,0.00,Acu-Link.com,2013-08-22 13:35:00,
2013-08-22 08:51:00,80.1,76.2,30.05,SE,135,0.0,-999.0,88,-99.99,,,0.00,Acu-Link.com,2013-08-22 13:51:00,
2013-08-22 09:06:00,79.9,76.7,30.05,SSE,157,0.0,-999.0,90,-99.99,,,0.00,Acu-Link.com,2013-08-22 14:06:00,
2013-08-22 09:21:00,81.9,76.2,30.05,South,180,0.0,-999.0,83,-99.99,,,0.00,Acu-Link.com,2013-08-22 14:21:00,
2013-08-22 09:36:00,81.7,76.0,30.05,South,180,0.0,-999.0,83,-99.99,,,0.00,Acu-Link.com,2013-08-22 14:36:00,
2013-08-22 09:51:00,82.2,75.4,30.05,WNW,292,0.0,-999.0,80,-99.99,,,0.00,Acu-Link.com,2013-08-22 14:51:00,
2013-08-22 10:07:00,83.7,75.7,30.05,SSE,157,0.0,-999.0,77,-99.99,,,0.00,Acu-Link.com,2013-08-22 15:07:00,
2013-08-22 10:22:00,83.7,74.9,30.05,NW,315,3.8,-999.0,75,-99.99,,,0.00,Acu-Link.com,2013-08-22 15:22:00,
2013-08-22 10:37:00,85.1,75.0,30.06,North,0,1.6,-999.0,72,-99.99,,,0.00,Acu-Link.com,2013-08-22 15:37:00,
2013-08-22 10:52:00,86.5,74.2,30.05,West,270,0.0,-999.0,67,-99.99,,,0.00,Acu-Link.com,2013-08-22 15:52:00,
2013-08-22 11:07:00,89.2,73.5,30.05,NE,45,4.3,-999.0,60,-99.99,,,0.00,Acu-Link.com,2013-08-22 16:07:00,
2013-08-22 11:23:00,89.8,73.0,30.04,ESE,112,0.0,-999.0,58,-99.99,,,0.00,Acu-Link.com,2013-08-22 16:23:00,
2013-08-22 11:38:00,91.2,72.2,30.04,SE,135,0.0,-999.0,54,-99.99,,,0.00,Acu-Link.com,2013-08-22 16:38:00,
2013-08-22 11:53:00,92.3,72.1,30.04,SE,135,1.1,-999.0,52,-99.99,,,0.00,Acu-Link.com,2013-08-22 16:53:00,
2013-08-22 12:08:00,91.8,69.2,30.03,West,270,0.0,-999.0,48,-99.99,,,0.00,Acu-Link.com,2013-08-22 17:08:00,
2013-08-22 12:24:00,93.9,68.6,30.03,SE,135,4.7,-999.0,44,-99.99,,,0.00,Acu-Link.com,2013-08-22 17:24:00,
2013-08-22 12:39:00,94.5,69.1,30.02,NNW,337,0.0,-999.0,44,-99.99,,,0.00,Acu-Link.com,2013-08-22 17:39:00,
2013-08-22 12:54:00,93.9,67.3,30.01,East,90,2.7,-999.0,42,-99.99,,,0.00,Acu-Link.com,2013-08-22 17:54:00,
2013-08-22 13:09:00,96.4,66.6,30.00,SE,135,7.4,-999.0,38,-99.99,,,0.00,Acu-Link.com,2013-08-22 18:09:00,
2013-08-22 13:24:00,95.2,65.5,30.00,West,270,9.8,-999.0,38,-99.99,,,0.00,Acu-Link.com,2013-08-22 18:24:00,
2013-08-22 13:40:00,96.3,66.5,29.99,SW,225,2.2,-999.0,38,-99.99,,,0.00,Acu-Link.com,2013-08-22 18:40:00,
2013-08-22 13:55:00,93.9,65.1,29.98,South,180,7.8,-999.0,39,-99.99,,,0.00,Acu-Link.com,2013-08-22 18:55:00,
2013-08-22 14:10:00,96.3,66.5,29.98,SE,135,8.3,-999.0,38,-99.99,,,0.00,Acu-Link.com,2013-08-22 19:10:00,
2013-08-22 14:25:00,96.4,65.1,29.98,SSW,202,6.3,-999.0,36,-99.99,,,0.00,Acu-Link.com,2013-08-22 19:25:00,
2013-08-22 14:40:00,95.4,65.7,29.97,South,180,10.3,-999.0,38,-99.99,,,0.00,Acu-Link.com,2013-08-22 19:40:00,
2013-08-22 14:56:00,96.8,66.2,29.96,WSW,247,6.3,-999.0,37,-99.99,,,0.00,Acu-Link.com,2013-08-22 19:56:00,
2013-08-22 15:11:00,97.2,66.5,29.95,SSW,202,5.1,-999.0,37,-99.99,,,0.00,Acu-Link.com,2013-08-22 20:11:00,
2013-08-22 15:26:00,97.3,65.0,29.95,SSW,202,0.0,-999.0,35,-99.99,,,0.00,Acu-Link.com,2013-08-22 20:26:00,
2013-08-22 15:41:00,98.6,63.6,29.94,West,270,5.1,-999.0,32,-99.99,,,0.00,Acu-Link.com,2013-08-22 20:41:00,
2013-08-22 15:56:00,100.2,59.1,29.94,SW,225,5.1,-999.0,26,-99.99,,,0.00,Acu-Link.com,2013-08-22 20:56:00,
2013-08-22 16:12:00,99.1,60.2,29.93,South,180,7.8,-999.0,28,-99.99,,,0.00,Acu-Link.com,2013-08-22 21:12:00,
2013-08-22 16:27:00,100.4,59.2,29.92,SW,225,4.7,-999.0,26,-99.99,,,0.00,Acu-Link.com,2013-08-22 21:27:00,
2013-08-22 16:42:00,100.2,61.2,29.92,West,270,6.3,-999.0,28,-99.99,,,0.00,Acu-Link.com,2013-08-22 21:42:00,
2013-08-22 16:57:00,99.5,60.6,29.91,SSE,157,5.8,-999.0,28,-99.99,,,0.00,Acu-Link.com,2013-08-22 21:57:00,
2013-08-22 17:12:00,100.6,59.4,29.91,West,270,8.9,-999.0,26,-99.99,,,0.00,Acu-Link.com,2013-08-22 22:12:00,
2013-08-22 17:28:00,100.4,59.2,29.91,West,270,7.8,-999.0,26,-99.99,,,0.00,Acu-Link.com,2013-08-22 22:28:00,
2013-08-22 17:43:00,100.9,61.8,29.90,ESE,112,5.1,-999.0,28,-99.99,,,0.00,Acu-Link.com,2013-08-22 22:43:00,
2013-08-22 17:58:00,99.3,64.2,29.90,SSE,157,7.4,-999.0,32,-99.99,,,0.00,Acu-Link.com,2013-08-22 22:58:00,
2013-08-22 18:13:00,99.9,64.7,29.90,South,180,5.8,-999.0,32,-99.99,,,0.00,Acu-Link.com,2013-08-22 23:13:00,
2013-08-22 18:29:00,98.6,63.6,29.89,SSW,202,5.8,-999.0,32,-99.99,,,0.00,Acu-Link.com,2013-08-22 23:29:00,
2013-08-22 18:44:00,97.2,64.9,29.89,South,180,8.9,-999.0,35,-99.99,,,0.00,Acu-Link.com,2013-08-22 23:44:00,
2013-08-22 18:59:00,97.9,64.7,29.90,SE,135,4.7,-999.0,34,-99.99,,,0.00,Acu-Link.com,2013-08-22 23:59:00,
2013-08-22 19:14:00,97.7,65.4,29.89,SSE,157,7.4,-999.0,35,-99.99,,,0.00,Acu-Link.com,2013-08-23 00:14:00,
2013-08-22 19:29:00,97.3,65.9,29.89,SSW,202,4.3,-999.0,36,-99.99,,,0.00,Acu-Link.com,2013-08-23 00:29:00,
2013-08-22 19:44:00,95.9,65.4,29.89,SSE,157,6.7,-999.0,37,-99.99,,,0.00,Acu-Link.com,2013-08-23 00:44:00,
2013-08-22 19:59:00,95.0,65.4,29.90,South,180,7.4,-999.0,38,-99.99,,,0.00,Acu-Link.com,2013-08-23 00:59:00,
2013-08-22 20:15:00,94.3,64.7,29.91,South,180,6.7,-999.0,38,-99.99,,,0.00,Acu-Link.com,2013-08-23 01:15:00,
2013-08-22 20:30:00,92.7,65.5,29.91,SE,135,5.8,-999.0,41,-99.99,,,0.00,Acu-Link.com,2013-08-23 01:30:00,
2013-08-22 20:45:00,91.9,66.2,29.91,SSE,157,7.4,-999.0,43,-99.99,,,0.00,Acu-Link.com,2013-08-23 01:45:00,
2013-08-22 21:00:00,91.2,66.2,29.92,South,180,6.3,-999.0,44,-99.99,,,0.00,Acu-Link.com,2013-08-23 02:00:00,
2013-08-22 21:15:00,90.1,66.5,29.93,South,180,5.1,-999.0,46,-99.99,,,0.00,Acu-Link.com,2013-08-23 02:15:00,
2013-08-22 21:30:00,89.4,66.5,29.94,ESE,112,4.3,-999.0,47,-99.99,,,0.00,Acu-Link.com,2013-08-23 02:30:00,
2013-08-22 21:46:00,88.9,66.6,29.94,ESE,112,5.1,-999.0,48,-99.99,,,0.00,Acu-Link.com,2013-08-23 02:46:00,
2013-08-22 22:01:00,88.0,67.0,29.95,SSE,157,8.3,-999.0,50,-99.99,,,0.00,Acu-Link.com,2013-08-23 03:01:00,
2013-08-22 22:16:00,87.1,67.3,29.96,SSE,157,8.3,-999.0,52,-99.99,,,0.00,Acu-Link.com,2013-08-23 03:16:00,
2013-08-22 22:31:00,86.4,68.8,29.96,ESE,112,6.3,-999.0,56,-99.99,,,0.00,Acu-Link.com,2013-08-23 03:31:00,
2013-08-22 22:47:00,86.2,70.1,29.96,SSE,157,6.7,-999.0,59,-99.99,,,0.00,Acu-Link.com,2013-08-23 03:47:00,
2013-08-22 23:02:00,86.0,71.0,29.97,SSE,157,8.9,-999.0,61,-99.99,,,0.00,Acu-Link.com,2013-08-23 04:02:00,
2013-08-22 23:17:00,85.6,71.6,29.97,South,180,5.8,-999.0,63,-99.99,,,0.00,Acu-Link.com,2013-08-23 04:17:00,
2013-08-22 23:32:00,85.5,71.9,29.97,South,180,6.3,-999.0,64,-99.99,,,0.00,Acu-Link.com,2013-08-23 04:32:00,
2013-08-22 23:47:00,85.3,72.2,29.97,SSE,157,7.8,-999.0,65,-99.99,,,0.00,Acu-Link.com,2013-08-23 04:47:00,